map of CXI home
Great Circle Mapper logo
CXI - Airport
Location
City:  Christmas Island, Kiribati
Near (Alt.):Kiritimati
Name:Cassidy International Airport
ICAO / IATA:PLCH / CXI

Details
Type:Airport (Aerodrome, Airfield)
Use:International (customs port of entry)
Latitude:159'10"N (1.986161)
Longitude:15720'59"W (-157.349777)
Datum:WGS 1984
Elevation:5 ft (2 m)
Runways:1
Longest:6900 × 98 ft (2103 × 30 m), paved

Time
Time Zone:UTC-10
Local Time:

Weather
METAR:PLCH 201900Z 14008KT 9999 SCT020 29/24 Q1013
TAF:PLCH 201607Z 2018/2118 14010KT 9999 -SHRA SCT020 SCT050
TEMPO 2018/2024 5000 SHRA BKN016 BKN040

Related Locations
Nearby:
Farthest:FZVE: 12398 mi / 19952 km
Lomela, CD

Find:

   beyond  
but within

Other Information
Maps:
NOTAMs:
Links:
Sources:

  
flag of Kiribati   

Sectional Chart

Flight Planning
at skyvector.com

Satellite Image

Google Maps Satellite View

 

Copyright © 2004-2014 Karl L. Swartz. All rights reserved.
The Great Circle Mapper name and logo are trademarks of the Great Circle Mapper.
All other trademarks mentioned herein belong to their respective owners.
Please see credits for attibutions and further copyright information.

  Follow gcmap on Facebook Follow gcmap on Twitter

hCard Microformat

Geo Microformat